Location: Home
(42.5358°N, 72.7383°W)
Time: 20:19:55
(UTC-05:00)

Vanguard 2 - Pass Details

Date: 03 December 2021
Orbit: 553 x 2936 km, 32.9° (Epoch: 20 January)

Event Time Altitude Azimuth Distance (km) Brightness Sun altitude
Rises 19:04:28 0° 264° (W) 4,381 12.6 -29.9°
Reaches altitude 10° 19:08:03 10° 248° (WSW) 3,775 11.9 -30.6°
Maximum altitude 19:15:01 21° 206° (SSW) 3,631 11.1 -31.8°
Drops below altitude 10° 19:24:13 10° 165° (SSE) 5,130 11.6 -33.5°
Sets 19:30:23 0° 152° (SSE) 6,476 12.0 -34.7°
